STARLINK-4447, 53472

Orbit data source: Space-Track

STARLINK-4447, 53472 is a payload satellite owned by SpaceX/Seattle (US) in SSO that was launched on Fri, 12 Aug 2022 UTC via an FALCON 9 launch vehicle from the Air Force Western Test Range (AFWTR). Payload-class satellites include a variety of spacecraft equipped with specific instruments for various scientific and technological missions. These include communications satellites like Starlink; space stations such as the ISS; scientific satellites like the Hubble; Earth observation satellites from companies like Planet Labs, Umbra, and HawkEye 360; GPS; miniature CubeSats for education and research; and military/defense satellites.

Loading next visibility...
Identifier
53472, 2022-099H
Orbit
SSO
Country
Flag of USUS
Related business
Manufacturer
SpaceX/Seattle
Mission
Operational Commercial Communications
Bus & Motor
STARLINK, Unknown motor
Mass
300 kg wet, ~275 kg dry
Launch date (UTC)
2022-08-12 (3 years ago)
Launch vehicle
FALCON 9
Launch site
Air Force Western Test Range (AFWTR)
Object type
Payload
Rocket body
Debris
Shape & HBR
Box + 1 Pan, 10.1 m
Radar Cross Section
13.562 m², Large (>1 m²)

Expand to show TLE details & history
Last TLE update: 12 hours ago

TLE from 12 hours ago
0 STARLINK-4447
1 53472U 22099H   25346.87038000  .00000646  00000-0  54819-4 0  9996
2 53472  97.6020 105.2225 0003828  83.0728 277.0932 15.01262529182951
Epoch: 2025-12-12T20:53Z
TLE epoch observation values (Epoch: 2025-12-12T20:53:20.832Z)
Latitude
0.00003°
Longitude
70.0799°
Altitude
565.734 km
Speed
7.578 km/s
True Right ascension
07h 00m 53s
True Declination
0° 00' 00"
Sunlit
Object was in full shadow at epoch
Visualization orbit readout
Latitude
Unknown
Longitude
Unknown
Altitude
Unknown
Speed
Unknown
Apparent Right ascension
Unknown
Apparent Declination
Unknown
Sunlit
N/A
Visualization observer readout
Local Sidereal Time
07:34:25
Azimuth
Unknown
Elevation
Unknown
Doppler factor
Unknown
Orbital elements
Apogee altitude
562.657 km
Perigee altitude
557.345 km
Semi-major axis
6,938.138 km
Eccentricity
0.00038
Inclination
97.602°
RAAN
105.2225°
Arg. of periapsis
83.0728°
True anomaly
277.04967°
Mean anomaly
277.0932°
Eccentric anomaly
277.07143°
Mean motion
3.75559 °/min
Orbital period
95.86 mins
BSTAR
0.000054819
Loading maneuver chart data...
Computing Atmospheric mass density...
Loading historical data...
Loading historical data...
Loading historical data...
Loading historical data...
Loading historical data...
Loading historical data...
Loading historical data...

Documentation

Showing up to 5 results
|